When you browse on this site, cookies collect data to enhance your experience and personalize the content and advertising you see.
Visit our Privacy Policy to learn more. By continuing to use the site, you agree to this use of cookies and data.
  • In Czech Republic
  • List of Countries
  • For 7 days
  • Water Temperature
  • Satellite Maps
  • Weather Map
  • Weather Widgets
  • user-avatar
    Login

    Hourly Weather Eisenstadt

    Today, 17 December, Monday

    Time Temperature Precipitation Wind Pressure Humidity
    00:00 -3°C° 0 mm 1 mps 723 mmHg 85%
    01:00 -3°C° 0 mm 1 mps 723 mmHg 84%
    02:00 -3°C° 0 mm 1 mps 723 mmHg 84%
    03:00 -3°C° 0 mm 1 mps 723 mmHg 84%
    04:00 -3°C° 0 mm 1 mps 723 mmHg 84%
    05:00 -3°C° 0 mm 1 mps 723 mmHg 84%
    06:00 -3°C° 0 mm 1 mps 723 mmHg 85%
    07:00 -4°C° 0 mm 0 mps 724 mmHg 85%
    08:00 -2°C° 0 mm 1 mps 724 mmHg 83%
    09:00 -2°C° 0 mm 1 mps 725 mmHg 81%
    10:00 -1°C° 0 mm 1 mps 725 mmHg 79%
    11:00 0°C° 0 mm 1 mps 725 mmHg 78%
    12:00 0°C° 0 mm 1 mps 725 mmHg 77%
    13:00 +1°C° 0 mm 1 mps 725 mmHg 77%
    14:00 0°C° 0 mm 1 mps 726 mmHg 81%
    15:00 -1°C° 0 mm 1 mps 726 mmHg 85%
    16:00 -1°C° 0 mm 1 mps 726 mmHg 89%
    17:00 -1°C° 0 mm 1 mps 727 mmHg 89%
    18:00 -1°C° 0 mm 1 mps 727 mmHg 89%
    19:00 -4°C° 0 mm 2 mps 728 mmHg 89%
    20:00 -3°C° 0 mm 2 mps 728 mmHg 89%
    21:00 -3°C° 0 mm 2 mps 728 mmHg 89%
    22:00 -3°C° 0 mm 2 mps 729 mmHg 90%
    23:00 -3°C° 0 mm 2 mps 729 mmHg 90%

    Tomorrow, 18 December, Tuesday

    Time Temperature Precipitation Wind Pressure Humidity
    00:00 -3°C° 0 mm 2 mps 729 mmHg 90%
    01:00 -3°C° 0 mm 2 mps 729 mmHg 90%
    02:00 -3°C° 0 mm 2 mps 729 mmHg 91%
    03:00 -3°C° 0 mm 2 mps 729 mmHg 91%
    04:00 -3°C° 0 mm 2 mps 729 mmHg 91%
    05:00 -3°C° 0 mm 2 mps 730 mmHg 91%
    06:00 -3°C° 0 mm 2 mps 730 mmHg 91%
    07:00 -3°C° 0 mm 2 mps 730 mmHg 91%
    08:00 0°C° 0 mm 1 mps 730 mmHg 89%
    09:00 +1°C° 0 mm 1 mps 730 mmHg 86%
    10:00 +2°C° 0 mm 1 mps 730 mmHg 84%
    11:00 +2°C° 0 mm 1 mps 730 mmHg 83%
    12:00 +3°C° 0 mm 1 mps 730 mmHg 81%
    13:00 +4°C° 0 mm 1 mps 729 mmHg 79%
    14:00 +3°C° 0 mm 1 mps 729 mmHg 83%
    15:00 +1°C° 0 mm 1 mps 729 mmHg 86%
    16:00 0°C° 0 mm 1 mps 729 mmHg 90%
    17:00 0°C° 0 mm 1 mps 728 mmHg 90%
    18:00 -1°C° 0 mm 1 mps 728 mmHg 91%
    19:00 -1°C° 0 mm 1 mps 728 mmHg 91%
    20:00 -1°C° 0 mm 1 mps 728 mmHg 91%
    21:00 -1°C° 0 mm 1 mps 728 mmHg 92%
    22:00 -2°C° 0 mm 1 mps 728 mmHg 92%
    23:00 -4°C° 0 mm 2 mps 727 mmHg 92%

    Day after tomorrow, 19 December, Wednesday

    Time Temperature Precipitation Wind Pressure Humidity
    00:00 -4°C° 0 mm 2 mps 727 mmHg 92%
    01:00 -4°C° 0 mm 2 mps 727 mmHg 93%
    02:00 -4°C° 0 mm 2 mps 727 mmHg 93%
    03:00 -4°C° 0 mm 2 mps 726 mmHg 94%
    04:00 -4°C° 0 mm 2 mps 726 mmHg 94%
    05:00 -4°C° 0 mm 2 mps 726 mmHg 94%
    06:00 -5°C° 0 mm 2 mps 726 mmHg 95%
    07:00 -5°C° 0 mm 2 mps 726 mmHg 95%
    08:00 -4°C° 0 mm 2 mps 726 mmHg 93%
    09:00 -4°C° 0 mm 3 mps 726 mmHg 91%
    10:00 -2°C° 0 mm 3 mps 726 mmHg 89%
    11:00 -2°C° 0 mm 3 mps 726 mmHg 87%
    12:00 -2°C° 0 mm 3 mps 726 mmHg 85%
    13:00 -1°C° 0 mm 3 mps 725 mmHg 83%
    14:00 -2°C° 0 mm 3 mps 725 mmHg 86%
    15:00 -2°C° 0 mm 3 mps 725 mmHg 88%
    16:00 -4°C° 0 mm 3 mps 725 mmHg 90%
    17:00 -4°C° 0 mm 3 mps 725 mmHg 91%
    18:00 -5°C° 0 mm 3 mps 725 mmHg 91%
    19:00 -5°C° 0 mm 3 mps 725 mmHg 91%
    20:00 -5°C° 0 mm 3 mps 725 mmHg 91%
    21:00 -5°C° 0 mm 3 mps 725 mmHg 91%
    22:00 -5°C° 0 mm 3 mps 725 mmHg 92%
    23:00 -5°C° 0 mm 3 mps 724 mmHg 91%

    20 December, Thursday

    Time Temperature Precipitation Wind Pressure Humidity
    00:00 -5°C° 0 mm 3 mps 724 mmHg 91%
    01:00 -5°C° 0 mm 3 mps 724 mmHg 90%
    02:00 -5°C° 0 mm 3 mps 724 mmHg 90%
    03:00 -5°C° 0 mm 3 mps 724 mmHg 91%
    04:00 -4°C° 0 mm 2 mps 724 mmHg 91%
    05:00 -5°C° 0 mm 2 mps 724 mmHg 91%
    06:00 -5°C° 0 mm 2 mps 724 mmHg 91%
    07:00 -5°C° 0 mm 2 mps 724 mmHg 91%
    08:00 -4°C° 0.1 mm 2 mps 724 mmHg 89%
    09:00 -4°C° 0.1 mm 2 mps 724 mmHg 88%
    10:00 -1°C° 0.1 mm 1 mps 724 mmHg 87%
    11:00 -1°C° 0.5 mm 1 mps 724 mmHg 88%
    12:00 -1°C° 0.5 mm 1 mps 724 mmHg 90%
    13:00 -1°C° 0.5 mm 1 mps 724 mmHg 92%
    14:00 -1°C° 0.8 mm 1 mps 724 mmHg 93%
    15:00 -1°C° 0.8 mm 1 mps 723 mmHg 95%
    16:00 -1°C° 0.8 mm 1 mps 723 mmHg 96%
    17:00 -1°C° 0.9 mm 1 mps 724 mmHg 97%
    18:00 -1°C° 0.9 mm 1 mps 724 mmHg 97%
    19:00 -1°C° 0.9 mm 1 mps 724 mmHg 97%
    20:00 -1°C° 0.3 mm 1 mps 724 mmHg 97%
    21:00 -2°C° 0.3 mm 0 mps 724 mmHg 97%
    22:00 -2°C° 0.3 mm 0 mps 725 mmHg 97%
    23:00 -1°C° 0.1 mm 1 mps 725 mmHg 96%

    21 December, Friday

    Time Temperature Precipitation Wind Pressure Humidity
    00:00 -1°C° 0.1 mm 1 mps 725 mmHg 96%
    01:00 -1°C° 0.1 mm 1 mps 725 mmHg 96%
    02:00 -1°C° 0.1 mm 1 mps 725 mmHg 95%
    03:00 -1°C° 0.1 mm 1 mps 725 mmHg 95%
    04:00 0°C° 0.1 mm 1 mps 725 mmHg 94%
    05:00 0°C° 0 mm 1 mps 725 mmHg 93%
    06:00 0°C° 0 mm 1 mps 725 mmHg 93%
    07:00 -2°C° 0 mm 2 mps 725 mmHg 92%
    08:00 -1°C° 0 mm 2 mps 726 mmHg 90%
    09:00 -1°C° 0 mm 2 mps 726 mmHg 89%
    10:00 +1°C° 0 mm 2 mps 726 mmHg 88%
    11:00 +3°C° 0 mm 1 mps 726 mmHg 89%
    12:00 +3°C° 0 mm 1 mps 726 mmHg 90%
    13:00 +4°C° 0 mm 1 mps 725 mmHg 91%
    14:00 +3°C° 0 mm 1 mps 725 mmHg 90%
    15:00 +2°C° 0 mm 1 mps 725 mmHg 90%
    16:00 +1°C° 0 mm 1 mps 725 mmHg 89%
    17:00 +1°C° 0 mm 1 mps 725 mmHg 89%
    18:00 -1°C° 0 mm 2 mps 725 mmHg 89%
    19:00 -1°C° 0 mm 2 mps 724 mmHg 89%
    20:00 -1°C° 0 mm 2 mps 724 mmHg 88%
    21:00 -1°C° 0 mm 2 mps 724 mmHg 88%
    22:00 -1°C° 0 mm 2 mps 724 mmHg 88%
    23:00 +1°C° 0.1 mm 2 mps 724 mmHg 88%

    22 December, Saturday

    Time Temperature Precipitation Wind Pressure Humidity
    00:00 +1°C° 0.1 mm 2 mps 723 mmHg 88%
    01:00 +1°C° 0.1 mm 2 mps 723 mmHg 88%
    02:00 +1°C° 0.1 mm 2 mps 723 mmHg 88%
    03:00 +2°C° 0.1 mm 1 mps 722 mmHg 88%
    04:00 +2°C° 0.1 mm 1 mps 722 mmHg 89%
    05:00 +2°C° 0.4 mm 1 mps 722 mmHg 89%
    06:00 +2°C° 0.4 mm 1 mps 722 mmHg 89%
    07:00 +2°C° 0.4 mm 1 mps 723 mmHg 90%
    08:00 +1°C° 0.1 mm 2 mps 723 mmHg 90%
    09:00 +2°C° 0.1 mm 2 mps 723 mmHg 90%
    10:00 +2°C° 0.1 mm 3 mps 724 mmHg 91%
    11:00 +2°C° 0 mm 3 mps 724 mmHg 91%
    12:00 +3°C° 0 mm 3 mps 724 mmHg 91%
    13:00 +4°C° 0 mm 3 mps 724 mmHg 91%
    14:00 +3°C° 0 mm 3 mps 724 mmHg 90%
    15:00 +4°C° 0 mm 2 mps 725 mmHg 88%
    16:00 +3°C° 0 mm 2 mps 725 mmHg 87%
    17:00 +3°C° 0 mm 2 mps 725 mmHg 87%
    18:00 +3°C° 0 mm 2 mps 726 mmHg 88%
    19:00 +3°C° 0 mm 2 mps 726 mmHg 88%
    20:00 +3°C° 0 mm 2 mps 726 mmHg 89%
    21:00 +3°C° 0 mm 2 mps 727 mmHg 90%
    22:00 +4°C° 0 mm 1 mps 727 mmHg 90%
    23:00 +4°C° 0.2 mm 1 mps 727 mmHg 91%
    Show more